SKD01 UHMM-UEEE

Flight info

Callsign SKD01
Flight time 1h 38m
Altitude 36000
Route KUKIR5E KUKIR A949 INLIR G370 RITIS DCT KUTEG KUTEG2A
Aircraft B737/M-SDE2E3FGHIRWXY/LB1

Departure

Time 2026-04-16 09:48
Airport Sokol Airport (UHMM)

Arrival

Time 2026-04-16 11:26
Airport Platon Oyunsky Yakutsk International Airport (UEEE)
Time Latitude Longitude Altitude Speed Heading
2026-04-16 09:39 59.91317 150.72939 582 ft 0 kts 92°
2026-04-16 09:42 59.91317 150.72947 582 ft 2 kts 92°
2026-04-16 09:42 59.91315 150.73035 582 ft 7 kts 92°
2026-04-16 09:43 59.91311 150.73135 582 ft 7 kts 96°
2026-04-16 09:43 59.91291 150.73219 582 ft 7 kts 130°
2026-04-16 09:43 59.91254 150.73277 582 ft 7 kts 155°
2026-04-16 09:43 59.91214 150.73249 582 ft 7 kts 223°
2026-04-16 09:44 59.91182 150.73182 582 ft 6 kts 227°
2026-04-16 09:44 59.91154 150.73113 582 ft 6 kts 235°
2026-04-16 09:44 59.91128 150.73040 583 ft 6 kts 234°
2026-04-16 09:44 59.91092 150.72999 585 ft 6 kts 184°
2026-04-16 09:45 59.91060 150.73075 585 ft 11 kts 96°
2026-04-16 09:45 59.91059 150.73267 583 ft 19 kts 90°
2026-04-16 09:45 59.91054 150.73589 582 ft 25 kts 92°
2026-04-16 09:45 59.91045 150.73950 579 ft 21 kts 93°
2026-04-16 09:46 59.91038 150.74218 581 ft 19 kts 93°
2026-04-16 09:46 59.91032 150.74477 583 ft 18 kts 92°
2026-04-16 09:46 59.91025 150.74728 584 ft 18 kts 94°
2026-04-16 09:46 59.91037 150.74921 584 ft 13 kts 51°
2026-04-16 09:47 59.91027 150.75047 584 ft 9 kts 188°
2026-04-16 09:47 59.91018 150.74932 584 ft 9 kts 284°
2026-04-16 09:47 59.91021 150.74870 584 ft 0 kts 273°
2026-04-16 09:48 59.91025 150.74716 584 ft 50 kts 273°
2026-04-16 09:48 59.91065 150.73299 585 ft 151 kts 273°
2026-04-16 09:48 59.91110 150.70902 1319 ft 187 kts 271°
2026-04-16 09:48 59.91166 150.68259 2901 ft 181 kts 273°
2026-04-16 09:49 59.91261 150.65523 3791 ft 220 kts 274°
2026-04-16 09:49 59.91363 150.62173 4153 ft 260 kts 274°
2026-04-16 09:49 59.91463 150.58581 5444 ft 255 kts 274°
2026-04-16 09:49 59.91566 150.55058 6650 ft 259 kts 275°
2026-04-16 09:50 59.91666 150.51334 7340 ft 277 kts 274°
2026-04-16 09:50 59.91748 150.47520 8581 ft 272 kts 275°
2026-04-16 09:50 59.91998 150.43775 9696 ft 274 kts 284°
2026-04-16 09:50 59.92431 150.40035 10547 ft 284 kts 286°
2026-04-16 09:51 59.92938 150.36036 10821 ft 312 kts 286°
2026-04-16 09:51 59.93487 150.31689 11307 ft 330 kts 286°
2026-04-16 09:51 59.94041 150.27194 12146 ft 336 kts 285°
2026-04-16 09:51 59.94590 150.22635 13101 ft 340 kts 285°
2026-04-16 09:52 59.95136 150.18016 13994 ft 345 kts 285°
2026-04-16 09:52 59.95684 150.13327 14818 ft 348 kts 285°
2026-04-16 09:52 59.96231 150.08602 15667 ft 352 kts 285°
2026-04-16 09:52 59.96781 150.03819 16502 ft 355 kts 285°
2026-04-16 09:53 59.97335 149.98990 17338 ft 359 kts 285°
2026-04-16 09:53 59.97891 149.94114 18161 ft 363 kts 286°
2026-04-16 09:53 59.98452 149.89175 18881 ft 367 kts 286°
2026-04-16 09:53 59.99018 149.84182 19601 ft 370 kts 286°
2026-04-16 09:54 59.99584 149.79157 20320 ft 372 kts 286°
2026-04-16 09:54 60.00154 149.74083 21019 ft 376 kts 286°
2026-04-16 09:54 60.00533 149.70701 21475 ft 378 kts 286°
2026-04-16 09:54 60.01304 149.63808 22360 ft 383 kts 287°
2026-04-16 09:55 60.01885 149.58587 23042 ft 386 kts 286°
2026-04-16 09:55 60.02468 149.53323 23690 ft 390 kts 286°
2026-04-16 09:55 60.03008 149.47985 24221 ft 394 kts 285°
2026-04-16 09:55 60.03502 149.42574 24746 ft 397 kts 284°
2026-04-16 09:56 60.03986 149.37110 25259 ft 400 kts 284°
2026-04-16 09:56 60.04472 149.31613 25755 ft 403 kts 284°
2026-04-16 09:56 60.04800 149.27939 26078 ft 405 kts 284°
2026-04-16 09:56 60.05300 149.22374 26555 ft 408 kts 284°
2026-04-16 09:57 60.05807 149.16752 27026 ft 411 kts 284°
2026-04-16 09:57 60.06314 149.11096 27485 ft 414 kts 284°
2026-04-16 09:57 60.06821 149.05404 27935 ft 417 kts 284°
2026-04-16 09:57 60.07496 148.97798 28525 ft 421 kts 284°
2026-04-16 09:58 60.07992 148.92169 28939 ft 424 kts 284°
2026-04-16 09:58 60.08504 148.86336 29356 ft 427 kts 284°
2026-04-16 09:58 60.08852 148.82361 29630 ft 429 kts 284°
2026-04-16 09:58 60.09365 148.76456 30011 ft 432 kts 284°
2026-04-16 09:59 60.09880 148.70501 30335 ft 435 kts 284°
2026-04-16 09:59 60.10396 148.64504 30602 ft 439 kts 283°
2026-04-16 09:59 60.10905 148.58546 30950 ft 440 kts 283°
2026-04-16 09:59 60.11419 148.52498 31343 ft 441 kts 283°
2026-04-16 10:00 60.11931 148.46433 31709 ft 442 kts 283°
2026-04-16 10:00 60.12442 148.40349 32058 ft 443 kts 283°
2026-04-16 10:00 60.12953 148.34236 32424 ft 445 kts 282°
2026-04-16 10:01 60.13968 148.21978 33140 ft 446 kts 282°
2026-04-16 10:01 60.14473 148.15827 33484 ft 448 kts 282°
2026-04-16 10:01 60.14977 148.09652 33840 ft 448 kts 282°
2026-04-16 10:01 60.15478 148.03479 34167 ft 449 kts 281°
2026-04-16 10:02 60.15975 147.97300 34489 ft 448 kts 281°
2026-04-16 10:02 60.16472 147.91101 34743 ft 450 kts 281°
2026-04-16 10:02 60.16966 147.84898 34996 ft 451 kts 281°
2026-04-16 10:02 60.17459 147.78677 35297 ft 451 kts 281°
2026-04-16 10:03 60.17949 147.72461 35597 ft 451 kts 281°
2026-04-16 10:03 60.18435 147.66240 35872 ft 451 kts 281°
2026-04-16 10:03 60.18920 147.60000 36065 ft 454 kts 280°
2026-04-16 10:03 60.19407 147.53709 36037 ft 457 kts 280°
2026-04-16 10:04 60.20371 147.41089 36054 ft 455 kts 280°
2026-04-16 10:04 60.21312 147.28613 36042 ft 449 kts 280°
2026-04-16 10:05 60.22238 147.16184 36048 ft 449 kts 280°
2026-04-16 10:05 60.23153 147.03740 36047 ft 450 kts 279°
2026-04-16 10:06 60.24057 146.91291 36049 ft 450 kts 279°
2026-04-16 10:06 60.24949 146.78822 36044 ft 450 kts 279°
2026-04-16 10:07 60.25831 146.66338 36049 ft 451 kts 279°
2026-04-16 10:07 60.26702 146.53824 36043 ft 451 kts 279°
2026-04-16 10:08 60.27562 146.41291 36042 ft 452 kts 279°
2026-04-16 10:08 60.28413 146.28723 36042 ft 453 kts 279°
2026-04-16 10:09 60.29253 146.16137 36037 ft 453 kts 278°
2026-04-16 10:09 60.30083 146.03537 36032 ft 453 kts 278°
2026-04-16 10:10 60.31139 145.91031 36023 ft 452 kts 288°
2026-04-16 10:10 60.33213 145.79167 36027 ft 451 kts 291°
2026-04-16 10:11 60.35392 145.67281 36033 ft 451 kts 291°
2026-04-16 10:11 60.37528 145.55347 36033 ft 452 kts 290°
2026-04-16 10:12 60.39623 145.43374 36029 ft 452 kts 290°
2026-04-16 10:12 60.41702 145.31364 36027 ft 452 kts 290°
2026-04-16 10:13 60.43770 145.19345 36030 ft 452 kts 290°
2026-04-16 10:13 60.45828 145.07311 36027 ft 452 kts 290°
2026-04-16 10:14 60.47875 144.95263 36031 ft 452 kts 289°
2026-04-16 10:14 60.49911 144.83200 36035 ft 452 kts 289°
2026-04-16 10:15 60.51931 144.71122 36025 ft 452 kts 289°
2026-04-16 10:15 60.53951 144.59025 36023 ft 453 kts 289°
2026-04-16 10:16 60.55959 144.46899 36028 ft 453 kts 289°
2026-04-16 10:16 60.57957 144.34751 36023 ft 453 kts 289°
2026-04-16 10:17 60.59945 144.22586 36023 ft 453 kts 289°
2026-04-16 10:17 60.61922 144.10406 36022 ft 453 kts 288°
2026-04-16 10:18 60.63893 143.98198 36026 ft 454 kts 288°
2026-04-16 10:18 60.65853 143.85970 36028 ft 454 kts 288°
2026-04-16 10:19 60.67804 143.73718 36025 ft 454 kts 288°
2026-04-16 10:19 60.69745 143.61441 36026 ft 455 kts 288°
2026-04-16 10:20 60.71676 143.49140 36028 ft 455 kts 288°
2026-04-16 10:20 60.73597 143.36818 36024 ft 455 kts 287°
2026-04-16 10:21 60.75509 143.24466 36024 ft 456 kts 287°
2026-04-16 10:21 60.77398 143.12187 36026 ft 456 kts 287°
2026-04-16 10:22 60.79290 142.99803 36031 ft 456 kts 287°
2026-04-16 10:22 60.81174 142.87394 36029 ft 456 kts 287°
2026-04-16 10:23 60.83059 142.74890 36035 ft 456 kts 287°
2026-04-16 10:23 60.84909 142.62533 36034 ft 457 kts 286°
2026-04-16 10:24 60.86763 142.50058 36036 ft 457 kts 286°
2026-04-16 10:24 60.88604 142.37577 36042 ft 457 kts 286°
2026-04-16 10:25 60.90434 142.25071 36035 ft 457 kts 286°
2026-04-16 10:25 60.92253 142.12553 36036 ft 457 kts 285°
2026-04-16 10:26 60.94063 142.00004 36040 ft 458 kts 285°
2026-04-16 10:26 60.95861 141.87438 36041 ft 458 kts 285°
2026-04-16 10:27 60.97649 141.74851 36032 ft 458 kts 285°
2026-04-16 10:27 60.99425 141.62248 36031 ft 458 kts 285°
2026-04-16 10:28 61.01190 141.49623 36028 ft 459 kts 284°
2026-04-16 10:28 61.02944 141.36985 36028 ft 459 kts 284°
2026-04-16 10:29 61.04687 141.24322 36022 ft 459 kts 284°
2026-04-16 10:29 61.06418 141.11648 36014 ft 459 kts 284°
2026-04-16 10:30 61.08137 140.98960 36015 ft 459 kts 284°
2026-04-16 10:30 61.09845 140.86258 36018 ft 459 kts 283°
2026-04-16 10:31 61.11539 140.73548 36030 ft 459 kts 283°
2026-04-16 10:31 61.13225 140.60802 36013 ft 459 kts 283°
2026-04-16 10:32 61.14901 140.48043 36021 ft 459 kts 283°
2026-04-16 10:32 61.16561 140.35268 36022 ft 460 kts 283°
2026-04-16 10:33 61.18198 140.22544 36027 ft 460 kts 283°
2026-04-16 10:33 61.19834 140.09736 36028 ft 460 kts 283°
2026-04-16 10:34 61.21459 139.96908 36028 ft 460 kts 282°
2026-04-16 10:34 61.23071 139.84077 36029 ft 460 kts 282°
2026-04-16 10:35 61.24672 139.71224 36026 ft 460 kts 282°
2026-04-16 10:35 61.26261 139.58355 36020 ft 460 kts 282°
2026-04-16 10:36 61.27839 139.45461 36023 ft 460 kts 282°
2026-04-16 10:36 61.29404 139.32568 36020 ft 460 kts 282°
2026-04-16 10:37 61.30956 139.19663 36031 ft 460 kts 281°
2026-04-16 10:37 61.32497 139.06735 36012 ft 460 kts 281°
2026-04-16 10:38 61.34024 138.93807 36017 ft 460 kts 281°
2026-04-16 10:38 61.35539 138.80863 36015 ft 460 kts 281°
2026-04-16 10:39 61.37041 138.67917 36014 ft 460 kts 281°
2026-04-16 10:39 61.38531 138.54956 36009 ft 459 kts 281°
2026-04-16 10:40 61.40008 138.41986 36013 ft 459 kts 281°
2026-04-16 10:40 61.41473 138.29001 36016 ft 460 kts 280°
2026-04-16 10:41 61.42927 138.15995 36006 ft 460 kts 280°
2026-04-16 10:41 61.44368 138.02980 36009 ft 460 kts 280°
2026-04-16 10:42 61.45786 137.90053 36007 ft 460 kts 280°
2026-04-16 10:42 61.47201 137.77013 36011 ft 460 kts 279°
2026-04-16 10:43 61.48605 137.63957 36016 ft 460 kts 279°
2026-04-16 10:43 61.49997 137.50899 36013 ft 459 kts 279°
2026-04-16 10:44 61.51365 137.37910 35991 ft 452 kts 280°
2026-04-16 10:44 61.52696 137.25134 36005 ft 448 kts 280°
2026-04-16 10:45 61.53796 137.14519 36012 ft 449 kts 280°
2026-04-16 10:45 61.55113 137.01694 36005 ft 450 kts 280°
2026-04-16 10:46 61.56418 136.88852 35996 ft 450 kts 280°
2026-04-16 10:46 61.57709 136.76003 36008 ft 450 kts 279°
2026-04-16 10:47 61.58990 136.63128 35997 ft 450 kts 279°
2026-04-16 10:47 61.60259 136.50245 36006 ft 451 kts 279°
2026-04-16 10:48 61.61516 136.37344 35998 ft 451 kts 279°
2026-04-16 10:48 61.62760 136.24436 35998 ft 451 kts 279°
2026-04-16 10:49 61.63994 136.11519 35995 ft 451 kts 279°
2026-04-16 10:49 61.65216 135.98584 36000 ft 451 kts 279°
2026-04-16 10:50 61.66429 135.85648 35989 ft 451 kts 279°
2026-04-16 10:50 61.67634 135.72704 35997 ft 450 kts 278°
2026-04-16 10:51 61.68818 135.59844 35996 ft 450 kts 278°
2026-04-16 10:51 61.69996 135.46899 35996 ft 450 kts 278°
2026-04-16 10:52 61.71160 135.33965 35993 ft 449 kts 278°
2026-04-16 10:52 61.72314 135.21028 35992 ft 449 kts 278°
2026-04-16 10:53 61.73457 135.08089 35988 ft 448 kts 278°
2026-04-16 10:53 61.74597 134.95158 35991 ft 448 kts 278°
2026-04-16 10:54 61.75727 134.82236 35992 ft 448 kts 278°
2026-04-16 10:54 61.76843 134.69309 35996 ft 447 kts 278°
2026-04-16 10:55 61.77945 134.56379 35994 ft 447 kts 277°
2026-04-16 10:55 61.79035 134.43446 35991 ft 447 kts 277°
2026-04-16 10:56 61.80111 134.30516 35995 ft 447 kts 277°
2026-04-16 10:56 61.81175 134.17577 35991 ft 447 kts 277°
2026-04-16 10:57 61.82227 134.04630 35994 ft 446 kts 277°
2026-04-16 10:57 61.83267 133.91684 35988 ft 446 kts 277°
2026-04-16 10:58 61.84294 133.78738 35991 ft 446 kts 277°
2026-04-16 10:58 61.85310 133.65777 35977 ft 446 kts 276°
2026-04-16 10:59 61.85811 133.59237 35342 ft 454 kts 276°
2026-04-16 10:59 61.86300 133.52647 34676 ft 452 kts 276°
2026-04-16 10:59 61.86783 133.46061 33886 ft 453 kts 276°
2026-04-16 10:59 61.87262 133.39461 32920 ft 453 kts 276°
2026-04-16 11:00 61.87739 133.32870 32171 ft 450 kts 275°
2026-04-16 11:00 61.88208 133.26383 31591 ft 442 kts 275°
2026-04-16 11:00 61.88662 133.20072 31029 ft 436 kts 275°
2026-04-16 11:00 61.89112 133.13758 30440 ft 430 kts 275°
2026-04-16 11:01 61.89560 133.07445 29827 ft 425 kts 275°
2026-04-16 11:01 61.89987 133.01369 29224 ft 418 kts 275°
2026-04-16 11:01 61.90410 132.95324 28634 ft 412 kts 275°
2026-04-16 11:01 61.90823 132.89363 28065 ft 405 kts 274°
2026-04-16 11:02 61.91227 132.83481 27485 ft 400 kts 274°
2026-04-16 11:02 61.91626 132.77671 26941 ft 396 kts 274°
2026-04-16 11:02 61.92019 132.71927 26369 ft 392 kts 274°
2026-04-16 11:02 61.92405 132.66224 25802 ft 389 kts 274°
2026-04-16 11:03 61.92786 132.60562 25254 ft 386 kts 274°
2026-04-16 11:03 61.93168 132.54970 24800 ft 380 kts 274°
2026-04-16 11:03 61.93926 132.43906 23709 ft 377 kts 274°
2026-04-16 11:04 61.94299 132.38416 23090 ft 375 kts 274°
2026-04-16 11:04 61.94668 132.32957 22521 ft 372 kts 274°
2026-04-16 11:04 61.95031 132.27552 21964 ft 368 kts 274°
2026-04-16 11:04 61.95389 132.22191 21416 ft 365 kts 274°
2026-04-16 11:05 61.95741 132.16862 20871 ft 363 kts 274°
2026-04-16 11:05 61.96089 132.11566 20312 ft 361 kts 274°
2026-04-16 11:05 61.96433 132.06306 19776 ft 359 kts 274°
2026-04-16 11:05 61.96773 132.01064 19246 ft 357 kts 274°
2026-04-16 11:06 61.97110 131.95844 18707 ft 356 kts 274°
2026-04-16 11:06 61.97444 131.90642 18160 ft 354 kts 274°
2026-04-16 11:06 61.97774 131.85459 17555 ft 353 kts 274°
2026-04-16 11:06 61.98101 131.80309 17013 ft 350 kts 274°
2026-04-16 11:07 61.98423 131.75202 16457 ft 348 kts 274°
2026-04-16 11:07 61.98741 131.70125 15928 ft 345 kts 274°
2026-04-16 11:07 61.99055 131.65080 15391 ft 343 kts 274°
2026-04-16 11:07 61.99365 131.60070 14858 ft 341 kts 274°
2026-04-16 11:08 61.99672 131.55075 14331 ft 339 kts 274°
2026-04-16 11:08 61.99976 131.50112 13803 ft 338 kts 274°
2026-04-16 11:08 62.00276 131.45167 13215 ft 336 kts 274°
2026-04-16 11:08 62.00573 131.40255 12656 ft 334 kts 274°
2026-04-16 11:09 62.00866 131.35376 12129 ft 331 kts 274°
2026-04-16 11:09 62.01155 131.30529 11589 ft 329 kts 274°
2026-04-16 11:09 62.01441 131.25706 11053 ft 327 kts 275°
2026-04-16 11:09 62.01723 131.20912 10521 ft 326 kts 275°
2026-04-16 11:10 62.02001 131.16187 10303 ft 315 kts 275°
2026-04-16 11:10 62.02267 131.11652 10150 ft 303 kts 275°
2026-04-16 11:10 62.02520 131.07287 10008 ft 292 kts 274°
2026-04-16 11:10 62.02763 131.03087 9897 ft 280 kts 274°
2026-04-16 11:11 62.03001 130.98908 9351 ft 285 kts 275°
2026-04-16 11:11 62.03238 130.94731 8948 ft 284 kts 275°
2026-04-16 11:11 62.03474 130.90567 8557 ft 283 kts 275°
2026-04-16 11:11 62.03709 130.86418 8183 ft 281 kts 275°
2026-04-16 11:12 62.03940 130.82296 7816 ft 279 kts 275°
2026-04-16 11:12 62.04168 130.78199 7457 ft 278 kts 275°
2026-04-16 11:12 62.04393 130.74128 7099 ft 276 kts 275°
2026-04-16 11:12 62.04311 130.70173 6882 ft 267 kts 256°
2026-04-16 11:13 62.03853 130.66360 6734 ft 259 kts 253°
2026-04-16 11:13 62.03381 130.62664 6581 ft 258 kts 253°
2026-04-16 11:13 62.02915 130.59030 6440 ft 258 kts 253°
2026-04-16 11:13 62.02442 130.55334 6292 ft 260 kts 254°
2026-04-16 11:14 62.01967 130.51600 6134 ft 262 kts 254°
2026-04-16 11:14 62.01492 130.47848 5980 ft 263 kts 254°
2026-04-16 11:14 62.01018 130.44096 5826 ft 263 kts 254°
2026-04-16 11:14 62.00542 130.40339 5672 ft 263 kts 254°
2026-04-16 11:15 62.00068 130.36586 5521 ft 263 kts 254°
2026-04-16 11:15 61.99594 130.32832 5356 ft 263 kts 254°
2026-04-16 11:15 61.99121 130.29077 5220 ft 262 kts 254°
2026-04-16 11:15 61.98646 130.25330 5065 ft 262 kts 254°
2026-04-16 11:16 61.98172 130.21588 4911 ft 262 kts 254°
2026-04-16 11:16 61.97696 130.17846 4772 ft 262 kts 254°
2026-04-16 11:16 61.97220 130.14109 4611 ft 262 kts 254°
2026-04-16 11:16 61.96744 130.10379 4462 ft 261 kts 254°
2026-04-16 11:17 61.96267 130.06654 4310 ft 261 kts 254°
2026-04-16 11:17 61.96006 130.04619 4229 ft 261 kts 254°
2026-04-16 11:17 61.95630 130.01698 4113 ft 261 kts 254°
2026-04-16 11:17 61.95151 129.97977 3963 ft 261 kts 254°
2026-04-16 11:18 61.94670 129.94247 3803 ft 262 kts 254°
2026-04-16 11:18 61.94188 129.90521 3661 ft 262 kts 254°
2026-04-16 11:18 61.93704 129.86787 3509 ft 262 kts 254°
2026-04-16 11:18 61.93219 129.83052 3360 ft 263 kts 254°
2026-04-16 11:19 61.92732 129.79302 3212 ft 262 kts 254°
2026-04-16 11:19 61.92251 129.75625 3035 ft 255 kts 255°
2026-04-16 11:19 61.91783 129.72052 2889 ft 248 kts 255°
2026-04-16 11:19 61.91326 129.68576 2740 ft 241 kts 255°
2026-04-16 11:20 61.91011 129.65164 2619 ft 231 kts 275°
2026-04-16 11:20 61.91425 129.62046 2616 ft 212 kts 303°
2026-04-16 11:20 61.92199 129.59562 2620 ft 193 kts 311°
2026-04-16 11:20 61.92994 129.57425 2591 ft 174 kts 322°
2026-04-16 11:21 61.93958 129.56205 2636 ft 159 kts 350°
2026-04-16 11:21 61.95044 129.55983 2625 ft 152 kts 11°
2026-04-16 11:21 61.96052 129.56522 2607 ft 147 kts 32°
2026-04-16 11:21 61.96853 129.57731 2630 ft 143 kts 40°
2026-04-16 11:22 61.97662 129.58985 2625 ft 144 kts 39°
2026-04-16 11:22 61.98461 129.60232 2633 ft 140 kts 40°
2026-04-16 11:22 61.99209 129.61392 2637 ft 126 kts 40°
2026-04-16 11:22 61.99906 129.62478 2424 ft 121 kts 40°
2026-04-16 11:23 62.00573 129.63524 2259 ft 118 kts 40°
2026-04-16 11:23 62.01236 129.64571 2113 ft 119 kts 39°
2026-04-16 11:23 62.01900 129.65621 1949 ft 119 kts 39°
2026-04-16 11:23 62.02560 129.66671 1784 ft 118 kts 39°
2026-04-16 11:24 62.03220 129.67722 1611 ft 119 kts 39°
2026-04-16 11:24 62.03886 129.68785 1436 ft 122 kts 38°
2026-04-16 11:24 62.04571 129.69879 1261 ft 125 kts 37°
2026-04-16 11:24 62.05271 129.70997 1086 ft 126 kts 36°
2026-04-16 11:25 62.05980 129.72130 953 ft 128 kts 35°
2026-04-16 11:25 62.06698 129.73295 746 ft 133 kts 35°
2026-04-16 11:25 62.07426 129.74478 472 ft 127 kts 34°
2026-04-16 11:25 62.08115 129.75552 351 ft 121 kts 34°
2026-04-16 11:26 62.08778 129.76576 330 ft 99 kts 33°
2026-04-16 11:26 62.09205 129.77276 330 ft 56 kts 40°
2026-04-16 11:26 62.09431 129.77664 330 ft 25 kts 38°
2026-04-16 11:26 62.09570 129.77884 327 ft 25 kts 35°
2026-04-16 11:27 62.09710 129.78096 327 ft 24 kts 36°
2026-04-16 11:27 62.09824 129.78280 323 ft 15 kts 40°
2026-04-16 11:27 62.09908 129.78424 326 ft 16 kts 29°
2026-04-16 11:27 62.09995 129.78324 331 ft 14 kts 303°
2026-04-16 11:28 62.10020 129.78242 331 ft 14 kts 305°
2026-04-16 11:28 62.10100 129.78024 333 ft 18 kts 309°
2026-04-16 11:28 62.10187 129.77781 333 ft 24 kts 304°
2026-04-16 11:28 62.10232 129.77561 329 ft 20 kts 259°
2026-04-16 11:29 62.10181 129.77345 333 ft 8 kts 243°
2026-04-16 11:29 62.10132 129.77144 332 ft 17 kts 242°
2026-04-16 11:29 62.10081 129.76997 331 ft 15 kts 222°
2026-04-16 11:29 62.10028 129.76918 330 ft 10 kts 212°
2026-04-16 11:30 62.09984 129.76858 332 ft 13 kts 212°
2026-04-16 11:30 62.09871 129.76700 328 ft 15 kts 213°
2026-04-16 11:30 62.09789 129.76584 329 ft 14 kts 214°
2026-04-16 11:30 62.09736 129.76508 328 ft 14 kts 214°
2026-04-16 11:31 62.09660 129.76398 328 ft 13 kts 213°
2026-04-16 11:31 62.09557 129.76271 329 ft 13 kts 208°
2026-04-16 11:31 62.09482 129.76185 332 ft 12 kts 208°
2026-04-16 11:31 62.09409 129.76100 331 ft 12 kts 208°
2026-04-16 11:32 62.09360 129.76043 329 ft 12 kts 208°
2026-04-16 11:32 62.09268 129.75933 330 ft 11 kts 209°
2026-04-16 11:32 62.09201 129.75849 330 ft 11 kts 210°
2026-04-16 11:32 62.09157 129.75795 329 ft 11 kts 208°
2026-04-16 11:33 62.09064 129.75687 330 ft 13 kts 209°
2026-04-16 11:33 62.08976 129.75583 330 ft 16 kts 209°
2026-04-16 11:33 62.08872 129.75459 329 ft 19 kts 208°
2026-04-16 11:33 62.08784 129.75358 329 ft 11 kts 206°
2026-04-16 11:34 62.08751 129.75353 331 ft 3 kts 166°
2026-04-16 11:34 62.08729 129.75386 332 ft 5 kts 140°
2026-04-16 11:34 62.08723 129.75402 333 ft 2 kts 126°
2026-04-16 11:34 62.08705 129.75420 333 ft 4 kts 170°
2026-04-16 11:35 62.08670 129.75397 330 ft 7 kts 205°
2026-04-16 11:35 62.08635 129.75352 331 ft 0 kts 233°
2026-04-16 11:35 62.08631 129.75326 331 ft 7 kts 254°
2026-04-16 11:35 62.08629 129.75247 333 ft 1 kts 270°
2026-04-16 11:36 62.08628 129.75195 333 ft 0 kts 270°
2026-04-16 11:36 62.08628 129.75182 333 ft 2 kts 269°
2026-04-16 11:36 62.08628 129.75158 333 ft 0 kts 269°